GW0416 Weather Reports


time (UTC)temp
C
wind
direction
speed
KPH
gust
KPH
rain 1hr
cm
rain 24hr
cm
rain mn
cm
humidity
%
barometer
mb
20260831191537 20 267 14.5 19.3 0.00 0.00 0.00 45 1016.3
20260831190048 20 290 11.3 27.4 0.00 0.00 0.00 44 1016.5
20260831184536 20 220 14.5 30.6 0.00 0.00 0.00 45 1016.6
20260831183038 19 344 14.5 24.1 0.00 0.00 0.00 46 1016.5
20260831181535 19 305 17.7 35.4 0.00 0.00 0.00 46 1016.5
20260831180044 19 285 20.9 29.0 0.00 0.00 0.00 45 1016.6
20260831174543 19 282 12.9 27.4 0.00 0.00 0.00 48 1016.6
20260831173039 18 291 16.1 25.7 0.00 0.00 0.00 49 1016.7
20260831171537 18 288 14.5 30.6 0.00 0.00 0.00 48 1016.5
20260831170037 18 315 14.5 32.2 0.00 0.00 0.00 51 1016.6
20260831164553 18 5 19.3 32.2 0.00 0.00 0.00 52 1016.6
20260831163041 17 321 17.7 35.4 0.00 0.00 0.00 54 1016.5
20260831161535 17 292 16.1 32.2 0.00 0.00 0.00 54 1016.4
20260831160043 17 306 17.7 33.8 0.00 0.00 0.00 54 1016.3
20260831154604 16 284 17.7 30.6 0.00 0.00 0.00 54 1016.3
20260831153036 16 294 22.5 32.2 0.00 0.00 0.00 55 1016.4
20260831151534 15 296 25.7 35.4 0.00 0.00 0.00 57 1016.2
20260831150043 14 295 25.7 37.0 0.00 0.00 0.00 58 1016.1
20260831144538 13 300 29.0 40.2 0.00 0.00 0.00 59 1015.8
20260831143038 13 281 24.1 40.2 0.00 0.00 0.00 62 1015.6
20260831141535 12 290 22.5 32.2 0.00 0.00 0.00 65 1015.5
20260831140038 11 276 17.7 29.0 0.00 0.00 0.00 67 1015.5
20260831134534 10 290 17.7 27.4 0.00 0.00 0.00 71 1015.2
20260831133035 9 270 16.1 25.7 0.00 0.00 0.00 73 1015.2
20260831131535 8 279 19.3 25.7 0.00 0.00 0.00 75 1014.9
20260831130107 7 284 12.9 17.7 0.00 0.00 0.00 78 1014.9
20260831124535 8 295 16.1 24.1 0.00 0.00 0.00 76 1014.7
20260831123033 8 290 14.5 20.9 0.00 0.00 0.00 76 1014.5
20260831121536 8 294 14.5 24.1 0.00 0.00 0.00 74 1014.5
20260831120040 9 276 17.7 27.4 0.00 0.00 0.00 72 1014.2
20260831114536 9 288 20.9 29.0 0.00 0.00 0.00 71 1014.1
20260831113038 9 266 17.7 27.4 0.00 0.00 0.00 71 1014.3
20260831111546 9 271 17.7 29.0 0.00 0.00 0.00 71 1014.2
20260831110040 10 254 20.9 30.6 0.00 0.00 0.00 71 1014.1
20260831104552 9 269 19.3 32.2 0.00 0.00 0.00 72 1014.1
20260831103039 9 273 19.3 27.4 0.00 0.00 0.00 72 1013.8
20260831101537 9 275 19.3 32.2 0.00 0.00 0.00 73 1013.6
20260831100038 9 283 17.7 30.6 0.00 0.00 0.00 73 1013.6
20260831094534 8 265 16.1 22.5 0.00 0.00 0.00 75 1013.6
20260831093046 8 281 8.0 19.3 0.00 0.00 0.00 76 1013.8
20260831091534 8 261 12.9 27.4 0.00 0.00 0.00 75 1013.8
20260831090041 8 271 19.3 25.7 0.00 0.00 0.00 74 1013.4
20260831084536 9 270 19.3 29.0 0.00 0.03 0.00 73 1013.3
20260831083038 9 246 16.1 29.0 0.00 0.03 0.00 74 1013.1
20260831081536 9 237 16.1 27.4 0.00 0.03 0.00 74 1012.9
20260831080037 8 263 17.7 27.4 0.00 0.03 0.00 76 1012.5
20260831074537 8 269 14.5 22.5 0.00 0.03 0.00 75 1012.8
20260831073037 9 242 17.7 27.4 0.00 0.03 0.00 74 1012.7
20260831071535 10 256 17.7 30.6 0.00 0.03 0.00 73 1012.8
20260831070038 10 248 19.3 32.2 0.00 0.03 0.00 72 1012.7
20260831064537 10 270 19.3 32.2 0.00 0.03 0.00 71 1012.7
20260831063035 11 275 20.9 37.0 0.00 0.03 0.00 69 1012.7
20260831061535 11 242 16.1 32.2 0.00 0.03 0.00 68 1013.0
20260831060043 11 242 19.3 32.2 0.00 0.03 0.00 67 1012.8
20260831054537 11 253 20.9 35.4 0.00 0.03 0.03 66 1012.7
20260831053036 11 257 20.9 30.6 0.00 0.03 0.03 65 1012.5
20260831051538 11 263 22.5 37.0 0.00 0.03 0.03 66 1012.5
20260831050037 11 276 20.9 35.4 0.00 0.03 0.03 67 1012.4
20260831044536 11 271 22.5 32.2 0.00 0.03 0.03 66 1012.6
20260831043037 12 291 24.1 35.4 0.00 0.03 0.03 66 1012.5
20260831041536 12 296 20.9 38.6 0.00 0.03 0.03 64 1012.7
20260831040035 14 292 24.1 37.0 0.00 0.03 0.03 52 1012.6
20260831034537 14 267 29.0 41.8 0.00 0.03 0.03 51 1012.5
20260831033039 15 267 27.4 45.1 0.00 0.03 0.03 51 1012.2
20260831031539 15 257 27.4 46.7 0.00 0.03 0.03 50 1012.2
20260831030038 14 259 29.0 46.7 0.00 0.03 0.03 51 1011.9
20260831024541 15 247 27.4 46.7 0.00 0.03 0.03 50 1011.9
20260831023037 15 250 30.6 48.3 0.00 0.03 0.03 50 1011.7
20260831021538 15 281 33.8 49.9 0.00 0.03 0.03 50 1011.4
20260831020036 15 243 25.7 43.5 0.00 0.03 0.03 50 1011.4
20260831014540 15 255 29.0 54.7 0.00 0.03 0.03 49 1011.3
20260831013039 16 261 27.4 54.7 0.00 0.03 0.03 48 1011.2
20260831011536 16 255 29.0 53.1 0.00 0.03 0.03 47 1011.3
20260831010040 15 289 20.9 40.2 0.00 0.03 0.03 52 1011.5
20260831004553 15 313 24.1 45.1 0.00 0.05 0.03 56 1011.6
20260831003034 15 288 22.5 37.0 0.00 0.05 0.03 54 1011.6
20260831001534 15 297 29.0 48.3 0.00 0.05 0.03 54 1011.7
20260831000035 16 277 38.6 54.7 0.00 0.05 0.03 46 1011.3
20260830234551 16 277 37.0 54.7 0.00 0.76 0.03 45 1011.2
20260830233034 17 286 33.8 59.5 0.00 0.76 0.03 43 1011.1
20260830231535 17 275 32.2 56.3 0.00 0.76 0.03 44 1011.1
20260830230036 17 282 43.5 62.8 0.00 0.76 0.03 42 1011.1
20260830224536 17 237 37.0 54.7 0.00 0.76 0.03 43 1011.1
20260830223040 16 236 29.0 40.2 0.00 0.76 0.03 46 1011.4
20260830221540 16 257 27.4 46.7 0.00 0.76 0.03 47 1011.5
20260830220037 16 247 33.8 49.9 0.00 0.76 0.03 48 1011.7
20260830214537 16 271 33.8 46.7 0.00 0.76 0.03 47 1011.8
20260830213038 16 232 32.2 57.9 0.00 0.76 0.03 46 1011.9
20260830211534 16 238 33.8 54.7 0.00 0.76 0.03 45 1011.9
20260830210041 16 255 29.0 59.5 0.00 0.76 0.03 45 1011.9
20260830204534 17 279 32.2 57.9 0.00 0.76 0.03 43 1011.9
20260830203046 16 360 41.8 57.9 0.00 0.76 0.03 46 1011.7
20260830201536 16 277 37.0 54.7 0.00 0.76 0.03 47 1011.8
20260830200032 16 266 37.0 54.7 0.00 0.76 0.03 45 1011.6
20260830194538 17 298 29.0 53.1 0.00 0.76 0.03 41 1011.6
20260830193038 17 238 33.8 54.7 0.00 0.76 0.03 42 1011.8